Regional Weather Roundup
Issued by NWS

Home | Current Version | Previous Version | Text Only | Print | Product List | Glossary Off
Versions: 1 2 3 4 5 6 7 8 9 10 11 12 13 14 15 16 17 18 19 20 21 22 23 24 25 26 27 28 29 30 31 32 33 34 35 36 37 38 39 40 41 42 43 44 45 46 47 48 49 50

000
ASUS43 KBIS 242310
RWRND

NORTH DAKOTA REGIONAL WEATHER ROUNDUP
NATIONAL WEATHER SERVICE BISMARCK ND
600 PM CDT THU JUL 24 2014

NOTE: "FAIR" INDICATES FEW OR NO CLOUDS BELOW 12,000 FEET WITH NO
SIGNIFICANT WEATHER AND/OR OBSTRUCTIONS TO VISIBILITY.


NDZ001>003-009>011-017-250000-
NORTHWEST NORTH DAKOTA

CITY           SKY/WX    TMP DP  RH WIND       PRES   REMARKS
WILLISTON      SUNNY     86  65  49 S14G20    29.68F
MINOT          CLOUDY    76  66  71 E9G21     29.69R
MINOT AFB      CLOUDY    76  67  72 E15       29.69S
$$

NDZ018>021-031>035-040>046-250000-
SOUTHWEST NORTH DAKOTA

CITY           SKY/WX    TMP DP  RH WIND       PRES   REMARKS
BISMARCK       CLOUDY    79  65  62 E14       29.79F
DICKINSON      SUNNY     82  67  60 SE16      29.72F
GARRISON         N/A     74  68  81 SE18G28   29.72F
HETTINGER ARPT SUNNY     87  66  49 E9        29.74F
$$

NDZ004>008-012>016-024-026-027-054-250000-
NORTHEAST NORTH DAKOTA

CITY           SKY/WX    TMP DP  RH WIND       PRES   REMARKS
GRAND FORKS    PTSUNNY   76  60  57 S14       29.87F
GRND FRKS AFB  PTSUNNY   76  64  65 SE13      29.88S
DEVILS LAKE    CLOUDY    73  63  68 S8        29.89R
$$

NDZ022-023-025-028>030-036>039-047>053-250000-
SOUTHEAST NORTH DAKOTA

CITY           SKY/WX    TMP DP  RH WIND       PRES   REMARKS
FARGO          SUNNY     78  61  55 S16G28    29.86S
JAMESTOWN      PTSUNNY   75  64  68 S13G24    29.84R
$$




USA.gov is the U.S. government's official web portal to all federal, state and local government web resources and services.